When you browse on this site, cookies collect data to enhance your experience and personalize the content and advertising you see.
Visit our Privacy Policy to learn more. By continuing to use the site, you agree to this use of cookies and data.
  • In Denmark
  • List of Countries
  • For 7 days
  • Water Temperature
  • Weather Map
  • Weather Widgets
  • user-avatar
    Login

    Hourly Weather Zaragoza

    Today, 12 December, Thursday

    Time Temperature Precipitation Wind Pressure Humidity
    00:00 +5°C° 0 mm 8 mps 746 mmHg 72%
    01:00 +5°C° 0 mm 7 mps 746 mmHg 74%
    02:00 +5°C° 0 mm 6 mps 745 mmHg 75%
    03:00 +4°C° 0 mm 6 mps 745 mmHg 76%
    04:00 +5°C° 0 mm 6 mps 745 mmHg 75%
    05:00 +5°C° 0 mm 6 mps 745 mmHg 74%
    06:00 +5°C° 0 mm 6 mps 744 mmHg 73%
    07:00 +7°C° 0 mm 6 mps 744 mmHg 72%
    08:00 +6°C° 0 mm 7 mps 744 mmHg 71%
    09:00 +8°C° 0 mm 7 mps 743 mmHg 70%
    10:00 +9°C° 0 mm 8 mps 743 mmHg 66%
    11:00 +10°C° 0 mm 9 mps 742 mmHg 62%
    12:00 +11°C° 0 mm 10 mps 742 mmHg 57%
    13:00 +11°C° 0.1 mm 9 mps 741 mmHg 61%
    14:00 +11°C° 0.1 mm 9 mps 740 mmHg 64%
    15:00 +10°C° 0.1 mm 9 mps 739 mmHg 67%
    16:00 +10°C° 1 mm 9 mps 738 mmHg 71%
    17:00 +10°C° 1 mm 9 mps 738 mmHg 74%
    18:00 +9°C° 1 mm 10 mps 737 mmHg 78%
    19:00 +10°C° 0.7 mm 9 mps 737 mmHg 79%
    20:00 +10°C° 0.7 mm 9 mps 737 mmHg 79%
    21:00 +10°C° 0.7 mm 9 mps 736 mmHg 80%
    22:00 +11°C° 0.2 mm 8 mps 736 mmHg 80%
    23:00 +11°C° 0.2 mm 8 mps 736 mmHg 80%

    Tomorrow, 13 December, Friday

    Time Temperature Precipitation Wind Pressure Humidity
    00:00 +11°C° 0.2 mm 7 mps 736 mmHg 81%
    01:00 +12°C° 0.1 mm 7 mps 736 mmHg 80%
    02:00 +12°C° 0.1 mm 7 mps 735 mmHg 80%
    03:00 +12°C° 0.1 mm 7 mps 735 mmHg 79%
    04:00 +12°C° 0 mm 7 mps 735 mmHg 78%
    05:00 +12°C° 0 mm 8 mps 735 mmHg 78%
    06:00 +12°C° 0 mm 8 mps 735 mmHg 77%
    07:00 +13°C° 0 mm 8 mps 736 mmHg 75%
    08:00 +13°C° 0 mm 9 mps 736 mmHg 74%
    09:00 +13°C° 0 mm 9 mps 736 mmHg 72%
    10:00 +14°C° 0 mm 10 mps 737 mmHg 70%
    11:00 +14°C° 0 mm 10 mps 737 mmHg 68%
    12:00 +16°C° 0 mm 10 mps 737 mmHg 66%
    13:00 +16°C° 0 mm 11 mps 737 mmHg 65%
    14:00 +16°C° 0 mm 11 mps 737 mmHg 65%
    15:00 +15°C° 0 mm 12 mps 737 mmHg 64%
    16:00 +14°C° 0 mm 11 mps 738 mmHg 66%
    17:00 +15°C° 0 mm 9 mps 738 mmHg 68%
    18:00 +13°C° 0 mm 8 mps 739 mmHg 70%
    19:00 +13°C° 0 mm 8 mps 739 mmHg 71%
    20:00 +13°C° 0 mm 8 mps 740 mmHg 72%
    21:00 +13°C° 0 mm 8 mps 741 mmHg 73%
    22:00 +12°C° 0 mm 8 mps 741 mmHg 74%
    23:00 +12°C° 0 mm 7 mps 741 mmHg 75%

    Day after tomorrow, 14 December, Saturday

    Time Temperature Precipitation Wind Pressure Humidity
    00:00 +12°C° 0 mm 7 mps 742 mmHg 75%
    01:00 +11°C° 0 mm 7 mps 742 mmHg 75%
    02:00 +11°C° 0 mm 7 mps 742 mmHg 75%
    03:00 +11°C° 0 mm 7 mps 742 mmHg 75%
    04:00 +10°C° 0 mm 6 mps 742 mmHg 76%
    05:00 +10°C° 0 mm 6 mps 742 mmHg 76%
    06:00 +9°C° 0 mm 6 mps 743 mmHg 77%
    07:00 +10°C° 0 mm 6 mps 743 mmHg 75%
    08:00 +10°C° 0 mm 6 mps 743 mmHg 73%
    09:00 +12°C° 0 mm 5 mps 744 mmHg 70%
    10:00 +12°C° 0 mm 5 mps 743 mmHg 66%
    11:00 +13°C° 0 mm 5 mps 743 mmHg 62%
    12:00 +14°C° 0 mm 6 mps 743 mmHg 58%
    13:00 +14°C° 0 mm 5 mps 743 mmHg 58%
    14:00 +14°C° 0 mm 5 mps 742 mmHg 58%
    15:00 +14°C° 0 mm 5 mps 742 mmHg 59%
    16:00 +13°C° 0 mm 5 mps 742 mmHg 62%
    17:00 +12°C° 0 mm 4 mps 743 mmHg 65%
    18:00 +11°C° 0 mm 4 mps 743 mmHg 67%
    19:00 +10°C° 0 mm 5 mps 743 mmHg 68%
    20:00 +10°C° 0 mm 5 mps 743 mmHg 68%
    21:00 +10°C° 0 mm 6 mps 744 mmHg 69%
    22:00 +10°C° 0 mm 6 mps 744 mmHg 69%
    23:00 +10°C° 0 mm 6 mps 744 mmHg 69%

    15 December, Sunday

    Time Temperature Precipitation Wind Pressure Humidity
    00:00 +10°C° 0 mm 7 mps 744 mmHg 69%
    01:00 +10°C° 0 mm 6 mps 744 mmHg 70%
    02:00 +10°C° 0 mm 6 mps 744 mmHg 72%
    03:00 +9°C° 0 mm 6 mps 743 mmHg 73%
    04:00 +9°C° 0 mm 5 mps 743 mmHg 74%
    05:00 +9°C° 0 mm 5 mps 743 mmHg 74%
    06:00 +10°C° 0 mm 4 mps 743 mmHg 74%
    07:00 +10°C° 0 mm 4 mps 743 mmHg 72%
    08:00 +10°C° 0 mm 3 mps 743 mmHg 71%
    09:00 +12°C° 0 mm 2 mps 743 mmHg 69%
    10:00 +12°C° 0 mm 3 mps 743 mmHg 65%
    11:00 +13°C° 0 mm 3 mps 743 mmHg 60%
    12:00 +14°C° 0 mm 3 mps 743 mmHg 56%
    13:00 +14°C° 0 mm 3 mps 742 mmHg 55%
    14:00 +16°C° 0 mm 2 mps 742 mmHg 54%
    15:00 +16°C° 0 mm 2 mps 741 mmHg 53%
    16:00 +15°C° 0 mm 2 mps 741 mmHg 58%
    17:00 +14°C° 0 mm 2 mps 741 mmHg 62%
    18:00 +12°C° 0 mm 3 mps 741 mmHg 66%
    19:00 +11°C° 0 mm 3 mps 741 mmHg 67%
    20:00 +11°C° 0 mm 3 mps 741 mmHg 67%
    21:00 +11°C° 0 mm 3 mps 741 mmHg 67%
    22:00 +10°C° 0 mm 2 mps 741 mmHg 69%
    23:00 +10°C° 0 mm 2 mps 740 mmHg 71%

    16 December, Monday

    Time Temperature Precipitation Wind Pressure Humidity
    00:00 +10°C° 0 mm 2 mps 740 mmHg 72%
    01:00 +10°C° 0 mm 2 mps 740 mmHg 74%
    02:00 +9°C° 0 mm 2 mps 739 mmHg 76%
    03:00 +9°C° 0 mm 2 mps 738 mmHg 78%
    04:00 +9°C° 0 mm 3 mps 738 mmHg 80%
    05:00 +9°C° 0 mm 3 mps 737 mmHg 83%
    06:00 +8°C° 0 mm 4 mps 737 mmHg 85%
    07:00 +8°C° 0 mm 5 mps 737 mmHg 85%
    08:00 +8°C° 0 mm 6 mps 736 mmHg 84%
    09:00 +9°C° 0 mm 7 mps 736 mmHg 84%
    10:00 +10°C° 0 mm 8 mps 735 mmHg 81%
    11:00 +11°C° 0 mm 8 mps 735 mmHg 79%
    12:00 +11°C° 0 mm 9 mps 734 mmHg 76%
    13:00 +12°C° 0 mm 9 mps 733 mmHg 75%
    14:00 +12°C° 0 mm 10 mps 733 mmHg 74%
    15:00 +13°C° 0 mm 10 mps 733 mmHg 74%
    16:00 +12°C° 0 mm 8 mps 733 mmHg 77%
    17:00 +11°C° 0 mm 7 mps 733 mmHg 81%
    18:00 +12°C° 0 mm 5 mps 733 mmHg 84%
    19:00 +12°C° 0.1 mm 4 mps 734 mmHg 85%
    20:00 +11°C° 0.1 mm 3 mps 734 mmHg 85%
    21:00 +12°C° 0.1 mm 2 mps 734 mmHg 86%
    22:00 +12°C° 0.2 mm 2 mps 734 mmHg 86%
    23:00 +12°C° 0.2 mm 2 mps 734 mmHg 87%

    17 December, Tuesday

    Time Temperature Precipitation Wind Pressure Humidity
    00:00 +12°C° 0.2 mm 1 mps 734 mmHg 87%
    01:00 +11°C° 0.1 mm 1 mps 734 mmHg 85%
    02:00 +11°C° 0.1 mm 1 mps 735 mmHg 84%
    03:00 +11°C° 0.1 mm 1 mps 735 mmHg 82%
    04:00 +10°C° 0 mm 2 mps 735 mmHg 83%
    05:00 +10°C° 0 mm 3 mps 736 mmHg 83%
    06:00 +9°C° 0 mm 5 mps 736 mmHg 84%
    07:00 +9°C° 0.1 mm 5 mps 737 mmHg 83%
    08:00 +9°C° 0.1 mm 6 mps 738 mmHg 82%
    09:00 +9°C° 0.1 mm 6 mps 739 mmHg 81%
    10:00 +9°C° 0.2 mm 7 mps 739 mmHg 78%
    11:00 +9°C° 0.2 mm 8 mps 740 mmHg 75%
    12:00 +9°C° 0.2 mm 8 mps 740 mmHg 73%
    13:00 +9°C° 0.2 mm 7 mps 740 mmHg 73%
    14:00 +9°C° 0.2 mm 6 mps 741 mmHg 73%
    15:00 +9°C° 0.2 mm 6 mps 741 mmHg 74%
    16:00 +9°C° 0 mm 5 mps 742 mmHg 75%
    17:00 +8°C° 0 mm 5 mps 742 mmHg 77%
    18:00 +7°C° 0 mm 5 mps 743 mmHg 78%
    19:00 +7°C° 0 mm 4 mps 744 mmHg 79%
    20:00 +8°C° 0 mm 3 mps 744 mmHg 79%
    21:00 +7°C° 0 mm 3 mps 745 mmHg 79%
    22:00 +7°C° 0 mm 2 mps 745 mmHg 79%
    23:00 +7°C° 0 mm 2 mps 746 mmHg 80%
    Show more